Regional Weather Roundup
Issued by NWS

Home | Current Version | Previous Version | Text Only | Print | Product List | Glossary On
Versions: 1 2 3 4 5 6 7 8 9 10 11 12 13 14 15 16 17 18 19 20 21 22 23 24 25 26 27 28 29 30 31 32 33 34 35 36 37 38 39 40 41 42 43 44 45 46 47 48 49 50
000
ASUS45 KPSR 211100
RWRAZ

PRELIMINARY ARIZONA REGIONAL HOURLY WEATHER ROUNDUP
NATIONAL WEATHER SERVICE PHOENIX AZ
400 AM MST SUN SEP 21 2014

NOTE: FAIR INDICATES FEW OR NO CLOUDS BELOW 12,000 FEET WITH NO
SIGNIFICANT WEATHER AND/OR OBSTRUCTIONS TO VISIBILITY.

AZZ001>003-036-211200-
NORTHWEST ARIZONA

CITY           SKY/WX    TMP DP  RH WIND       PRES   REMARKS
KINGMAN        CLOUDY    76  53  44 S9        30.00S
$$

AZZ004>008-015-016-018-211200-
NORTH CENTRAL ARIZONA

CITY           SKY/WX    TMP DP  RH WIND       PRES   REMARKS
GRAND CANYON   CLOUDY    53  52  96 CALM      30.23S
PRESCOTT       CLEAR     67  55  65 S5        30.14R
FLAGSTAFF      CLOUDY    55  52  89 CALM      30.27R
PAYSON         PTCLDY    64  55  72 E5        30.18R
PAGE           CLOUDY    67  59  75 SW5       30.09S
$$

AZZ009>014-017-211200-
NORTHEAST ARIZONA

CITY           SKY/WX    TMP DP  RH WIND       PRES   REMARKS
WINSLOW        NOT AVBL
SAINT JOHNS    PTCLDY    60  51  72 SE5       30.19R
WINDOW ROCK    MOCLDY    58  45  62 VRB3      30.28
$$

AZZ023-211200-
GREATER PHOENIX AREA

CITY           SKY/WX    TMP DP  RH WIND       PRES   REMARKS
PHOENIX        PTCLDY    82  67  60 SE3       29.87S
DEER VALLEY    CLEAR     79  66  64 CALM      29.90R
SCOTTSDALE     CLEAR     81  67  62 CALM      29.92R
MESA-GATEWAY   CLEAR    N/A N/A N/A SE6       29.92S
$$

AZZ027-028-211200-
SOUTHWEST MARICOPA COUNTY AND PINAL COUNTY

CITY           SKY/WX    TMP DP  RH WIND       PRES   REMARKS
CASA GRANDE    CLEAR     73  57  56 CALM      29.92R
$$

AZZ503-504-507>509-211200-
SOUTHEAST ARIZONA

CITY           SKY/WX    TMP DP  RH WIND       PRES   REMARKS
TUCSON         PTCLDY    73  64  73 SE5       30.01R
DAVIS-MONTHAN  PTCLDY    72  66  79 SE6       29.99S
NOGALES        PTCLDY    65  62  90 NE3       30.07F
SIERRA VISTA   MOCLDY    67  63  87 SW5       30.13S
SAFFORD        PTCLDY    71  63  75 N3        30.01S
$$

AZZ020-021-025-026-031-211200-
SOUTHWEST ARIZONA

CITY           SKY/WX    TMP DP  RH WIND       PRES   REMARKS
YUMA           NOT AVBL
$$

CAZ031-033-041-043-047-048-061-211200-
SOUTHERN CALIFORNIA

CITY           SKY/WX    TMP DP  RH WIND       PRES   REMARKS
DOWNTOWN L.A.  CLEAR     65  62  90 CALM      29.93F
L.A. AIRPORT   CLOUDY    66  62  86 CALM      29.94S
SAN DIEGO      MOCLDY    71  61  70 N3        29.95S
BURBANK        CLEAR     65  58  78 E5        29.94S
ONTARIO        PTCLDY    64  59  83 SW5       29.95S
RIVERSIDE      MOCLDY    64  59  83 CALM      29.96R
PALM SPRINGS   CLEAR     77  55  46 CALM      29.82S
EL CENTRO NAS  CLEAR     77  48  35 SW5       29.78S
IMPERIAL       CLEAR     76  49  38 W7        29.78R
BLYTHE         CLEAR     79  64  60 SE7       29.81R
$$

NVZ020-UTZ003-211200-
SOUTHERN NEVADA-UTAH

CITY           SKY/WX    TMP DP  RH WIND       PRES   REMARKS
LAS VEGAS      NOT AVBL
SALT LAKE CITY CLOUDY    65  51  60 CALM      30.07R
$$

NMZ009-TXZ055-211200-
NEW MEXICO-WEST TEXAS

CITY           SKY/WX    TMP DP  RH WIND       PRES   REMARKS
ALBUQUERQUE    PTCLDY    67  56  67 SE15      30.25R
EL PASO        PTCLDY    72  65  78 CALM      30.09S
$$


........................KEY........................
SKY/WX - SKY CONDITION/WEATHER
TMP    - TEMPERATURE IN FAHRENHEIT
DP     - DEW POINT IN FAHRENHEIT
RH     - RELATIVE HUMIDITY IN PERCENT
WIND   - DIRECTION AND SPEED IN MILES PER HOUR (MPH)
VRB    - VARIABLE WIND DIRECTION
PRES   - MEAN SEA LEVEL PRESSURE IN INCHES OF MERCURY
         F - FALLING PRESSURE   R - RISING PRESSURE
         S - STEADY PRESSURE
VSB    - VISIBILITY IN MILES
HX     - HEAT INDEX IN FAHRENHEIT
WCI    - WIND CHILL INDEX IN FAHRENHEIT
TC     - TEMPERATURE IN CELSIUS WHICH IS ALSO KNOWN AS
         TEMPERATURE IN CENTIGRADE
AFB    - AIR FORCE BASE
         LUKE AFB IS LUKE AIR FORCE BASE
         DAVIS-MONTHAN IS DAVIS-MONTHAN AIR FORCE BASE
NAS    - NAVAL AIR STATION
         EL CENTRO NAS IS EL CENTRO NAVAL AIR STATION
N/A    - NOT AVAILABLE


USA.gov is the U.S. government's official web portal to all federal, state and local government web resources and services.